Weather History for Miles City, MT

Change the Weather History Date:

Monday, June 24, 2013

  Actual Average Record
Temperature  
Mean Temperature 71 °F 68 °F  
Max Temperature 88 °F 82 °F 102 °F (1986)
Min Temperature 54 °F 55 °F 44 °F (2003)
Degree Days  
Heating Degree Days 0 2  
Month to date heating degree days 59 82  
Since 1 June heating degree days 59 82  
Since 1 July heating degree days 7147 7631  
Cooling Degree Days 6 5  
Month to date cooling degree days 46 73  
Year to date cooling degree days 59 93  
Since 1 June cooling degree days 46 73  
Growing Degree Days 22 (Base 50)    
Moisture  
Dew Point 56 °F    
Average Humidity 61    
Maximum Humidity 86    
Minimum Humidity 36    
Precipitation  
Precipitation 0.00 in 0.07 in 1.11 in (1950)
Month to date precipitation 2.51 2.12  
Year to date precipitation 11.03 6.82  
Sea Level Pressure  
Sea Level Pressure 29.60 in    
Wind  
Wind Speed 7 mph (East)    
Max Wind Speed 14 mph    
Max Gust Speed 20 mph    
Visibility 10 miles    
Events      
T = Trace of Precipitation, MM = Missing Value Source: NWS Daily Summary

Daily Weather History Graph

Daily Weather History Graph

Search for Another Location

Airport:

Trip Planner

Search our weather history database for the weather conditions in past years. The results will help you decide how hot, cold, wet, or windy it might be!

Date:

Astronomy

Jun. 24, 2013 Rise Set
Actual Time 5:11 AM MDT 9:00 PM MDT
Civil Twilight 4:32 AM MDT 9:39 PM MDT
Nautical Twilight 3:39 AM MDT 10:32 PM MDT
Astronomical Twilight 2:23 AM MDT 11:48 PM MDT
Moon 9:55 PM MDT (6/24) 6:49 AM MDT (6/24)
Length of Visible Light 17h 06m
Length of Day
15h 48m
Full, 97% of the Moon is Illuminated
Jun 24
Full
Jun 29
Last Quarter
Jul 8
New
Jul 15
First Quarter
Jul 22
Full

Hourly Weather History & Observations

Time (MDT) Temp. Heat Index Dew Point Humidity Pressure Visibility Wind Dir Wind Speed Gust Speed Precip Events Conditions
12:53 AM 60.1 °F - 48.9 °F 67% 29.73 in 10.0 mi SE 6.9 mph - N/A   Clear
1:53 AM 59.0 °F - 48.9 °F 69% 29.72 in 10.0 mi SSE 5.8 mph - N/A   Clear
2:53 AM 57.0 °F - 50.0 °F 77% 29.69 in 10.0 mi NNE 5.8 mph - N/A   Clear
3:53 AM 55.9 °F - 50.0 °F 80% 29.67 in 10.0 mi NE 6.9 mph - N/A   Clear
4:53 AM 55.0 °F - 50.0 °F 83% 29.67 in 10.0 mi NNE 6.9 mph - N/A   Clear
5:53 AM 55.9 °F - 51.1 °F 84% 29.66 in 10.0 mi North 9.2 mph - N/A   Clear
6:53 AM 61.0 °F - 52.0 °F 72% 29.66 in 10.0 mi NE 8.1 mph - N/A   Clear
7:53 AM 64.9 °F - 55.0 °F 70% 29.65 in 10.0 mi NE 6.9 mph - N/A   Clear
8:53 AM 68.0 °F - 55.0 °F 63% 29.65 in 10.0 mi East 4.6 mph - N/A   Clear
9:53 AM 71.1 °F - 57.0 °F 61% 29.64 in 10.0 mi Variable 3.5 mph - N/A   Clear
10:53 AM 75.9 °F - 57.9 °F 54% 29.62 in 10.0 mi Variable 3.5 mph - N/A   Clear
11:53 AM 79.0 °F - 59.0 °F 50% 29.61 in 10.0 mi Variable 4.6 mph - N/A   Clear
12:53 PM 81.0 °F 81.6 °F 60.1 °F 49% 29.60 in 10.0 mi Variable 5.8 mph - N/A   Clear
1:53 PM 84.9 °F 84.4 °F 59.0 °F 41% 29.57 in 10.0 mi ESE 10.4 mph - N/A   Clear
2:53 PM 86.0 °F 85.7 °F 60.1 °F 41% 29.56 in 10.0 mi SE 8.1 mph 19.6 mph N/A   Clear
3:53 PM 88.0 °F 87.1 °F 59.0 °F 37% 29.55 in 10.0 mi SSE 13.8 mph - N/A   Clear
4:53 PM 88.0 °F 87.6 °F 60.1 °F 39% 29.53 in 10.0 mi East 10.4 mph - N/A   Clear
5:53 PM 87.1 °F 86.1 °F 57.9 °F 37% 29.53 in 10.0 mi SE 8.1 mph - N/A   Clear
6:53 PM 86.0 °F 85.4 °F 59.0 °F 40% 29.52 in 10.0 mi SE 9.2 mph - N/A   Clear
7:53 PM 84.0 °F 84.4 °F 61.0 °F 46% 29.53 in 10.0 mi ESE 9.2 mph - N/A   Clear
8:53 PM 81.0 °F 81.9 °F 62.1 °F 52% 29.51 in 10.0 mi ESE 11.5 mph - N/A   Clear
9:53 PM 78.1 °F - 62.1 °F 58% 29.48 in 10.0 mi North 5.8 mph - N/A   Clear
10:53 PM 75.9 °F - 59.0 °F 56% 29.49 in 10.0 mi ESE 6.9 mph - N/A   Clear
11:53 PM 73.0 °F - 57.0 °F 57% 29.50 in 10.0 mi ESE 4.6 mph - N/A   Clear